Wind_Speed
39 37 34 33 31 30 27 25 23 22 20 19 19 19 18 18 17 18 18 19 19 19 19 20 21 23 22 5 24 25 26 22 13 7 8 8 11 9 3 7 15 14 12 18 21 28 27
42 40 38 36 33 32 30 26 25 23 21 20 21 20 19 18 18 18 18 19 19 20 20 21 21 22 18 12 27 7 8 8 12 12 13 15 7 11 11 7 5 11 22 19 18 22 22
45 42 39 37 33 32 30 26 25 24 22 21 21 20 19 18 18 18 19 18 18 18 19 18 19 20 19 37 29 30 29 29 28 22 22 23 19 11 6 8 14 9 16 18 14 17 8
48 45 43 40 38 37 32 29 25 24 23 22 21 20 19 18 18 19 19 19 17 16 16 15 16 17 16 25 26 25 14 21 24 31 37 36 28 25 21 13 14 10 10 9 4 2 8
52 49 44 43 38 34 32 29 26 24 22 22 21 19 19 19 19 19 19 18 17 17 18 14 15 11 15 10 6 6 11 7 5 7 14 19 20 20 9 2 5 5 9 12 6 10 8
55 51 47 42 39 36 31 28 25 23 22 21 19 18 17 15 13 13 13 13 12 15 16 14 17 9 16 17 14 9 4 8 5 3 5 15 11 5 5 6 12 7 7 7 9 3 7
57 51 45 42 37 31 28 26 23 21 20 18 16 13 11 9 7 7 7 5 4 5 7 13 9 12 9 8 12 7 3 7 16 10 6 8 5 11 18 17 17 8 11 20 14 8 11
45 42 38 35 33 29 26 22 19 17 17 15 14 11 9 6 3 1 2 1 3 6 13 22 29 37 43 37 22 37 18 10 7 13 5 3 20 17 12 14 17 18 22 25 23 16 17
38 34 31 30 27 24 23 20 17 17 18 16 14 12 9 6 4 4 7 4 1 2 7 12 25 25 25 23 28 37 30 21 8 3 9 15 11 14 18 18 20 21 25 21 24 15 18
31 24 21 23 26 28 28 23 17 18 18 16 14 12 10 9 6 8 9 6 3 1 3 6 6 9 14 10 8 25 38 22 8 15 8 16 21 22 16 21 18 22 18 20 21 14 16
25 23 28 33 28 25 25 24 24 23 19 16 14 13 12 10 12 9 4 6 4 1 3 2 4 3 11 13 6 5 9 23 19 15 10 27 6 16 23 32 15 28 8 14 18 16 9
31 29 30 29 27 26 23 22 22 20 19 17 16 16 15 12 12 5 4 6 4 5 8 5 2 7 3 7 5 4 5 11 8 12 16 30 17 8 18 11 11 8 11 16 12 9 14
28 30 32 31 28 28 26 23 20 19 19 18 18 18 16 13 9 9 6 6 3 5 4 3 4 7 13 3 4 5 4 7 5 3 11 22 31 29 21 17 19 8 7 8 8 11 16
28 26 27 29 28 28 26 22 21 22 21 19 18 18 18 17 13 9 8 3 8 6 7 14 7 14 6 6 4 6 10 14 8 15 10 10 15 19 10 25 14 12 22 8 17 13 12
29 28 29 30 29 26 25 24 24 22 20 19 19 18 20 18 14 9 6 4 6 2 4 6 7 4 4 4 5 5 3 2 8 17 17 5 10 12 10 13 16 19 11 25 19 24 14
31 33 31 29 28 28 27 26 25 23 23 23 22 19 21 17 15 12 2 12 5 7 8 6 2 0 4 6 7 10 4 7 10 13 5 5 6 10 7 11 18 12 1 6 9 16 26
20 25 27 27 25 23 22 22 22 22 22 22 20 9 5 21 17 10 7 8 10 21 14 3 5 6 7 4 2 1 4 5 11 12 11 7 4 4 5 3 6 6 8 7 4 5 14
11 13 16 20 25 27 25 19 21 22 23 24 18 2 14 22 10 6 10 5 8 12 8 10 5 9 14 14 14 13 9 1 11 7 10 6 6 4 11 10 5 5 6 8 4 3 4
14 17 18 18 18 17 17 18 21 23 28 29 12 7 12 26 6 8 5 8 9 13 8 5 8 8 4 3 4 5 2 7 6 3 3 6 5 7 8 5 7 6 3 2 5 4 2
16 19 19 21 22 22 23 23 23 26 30 28 10 4 7 15 11 5 8 10 13 13 12 16 8 10 5 5 5 3 5 2 1 4 9 5 4 8 5 12 7 10 9 4 5 1 9
22 23 25 25 24 26 25 25 26 29 30 29 12 5 8 5 9 9 6 3 9 8 3 3 7 19 10 5 5 6 4 4 1 2 3 4 4 1 11 20 18 15 17 15 11 11 8
26 27 27 27 29 27 26 28 28 28 30 30 11 6 7 5 14 12 12 11 17 15 8 7 8 11 9 6 5 5 5 5 5 3 4 5 4 2 6 6 16 12 18 17 16 18 16
27 28 30 31 30 33 30 29 29 31 35 12 18 11 7 6 5 7 7 10 8 7 12 18 7 3 3 7 17 15 14 6 6 4 5 4 5 3 7 9 9 10 17 16 13 13 9
30 32 31 35 35 34 34 34 31 36 35 24 21 13 5 1 4 9 5 10 10 8 4 3 9 5 7 9 4 6 12 16 17 17 13 5 3 2 8 6 8 12 10 9 9 12 17
31 34 35 36 38 39 37 36 34 33 34 36 25 18 6 1 4 4 6 4 8 12 6 9 17 16 13 8 2 4 3 4 6 11 13 16 5 3 3 7 7 13 11 3 4 4 15
30 33 35 38 39 41 39 38 37 36 33 32 24 22 11 4 4 10 6 9 4 5 3 5 9 4 13 3 3 2 2 2 4 6 7 4 15 8 2 4 6 1 8 15 9 7 14
34 33 36 37 41 41 41 40 38 38 34 31 31 24 14 5 6 4 3 7 8 4 3 2 6 3 4 2 3 3 4 2 4 6 5 4 2 10 10 10 6 9 10 16 3 6 23
34 36 38 33 40 42 43 42 41 38 34 33 29 28 19 8 5 4 5 7 7 7 4 6 4 2 3 3 3 4 3 3 3 4 5 4 3 3 2 3 6 9 2 2 5 18 15
37 36 36 37 38 42 42 43 42 40 38 33 29 27 26 10 4 11 9 9 6 2 6 8 5 5 7 3 2 2 1 2 4 3 4 3 1 2 5 6 14 15 6 4 11 15 18
Wind_Direction
229 228 228 228 229 232 233 232 232 236 241 243 244 246 251 254 259 266 271 277 280 284 287 289 293 295 299 271 265 283 279 280 254 275 269 291 295 294 226 293 301 283 266 283 297 299 290
230 230 229 230 231 235 237 237 236 236 238 240 245 250 251 257 262 269 275 280 285 288 291 293 293 293 295 264 294 285 313 250 268 264 241 247 260 294 292 268 265 298 298 292 294 292 291
231 230 232 231 227 223 228 243 235 234 236 241 246 248 251 256 264 269 275 278 283 287 290 293 295 294 277 265 285 282 271 263 251 249 257 247 258 278 283 319 295 290 302 299 282 273 265
231 231 230 232 228 228 231 232 230 232 236 238 243 247 251 257 263 269 274 276 279 283 284 287 290 296 267 289 286 286 279 266 262 257 252 253 257 271 259 265 287 300 292 279 176 254 255
228 227 226 227 224 221 222 226 231 234 236 237 240 248 258 261 264 269 273 275 278 276 280 282 287 293 270 283 244 301 268 280 271 273 248 249 242 239 228 189 302 212 266 249 286 237 255
226 223 221 220 217 219 221 224 226 228 232 238 244 249 252 259 265 270 276 282 277 277 269 271 258 282 260 253 251 285 256 266 278 276 243 225 226 209 183 173 232 203 243 243 241 257 255
220 218 212 210 211 211 214 216 220 222 227 230 232 235 239 240 246 270 281 293 275 276 235 217 218 217 254 284 270 242 274 261 265 245 203 205 198 210 214 215 236 265 255 264 266 252 282
204 207 204 205 203 204 207 208 212 216 221 223 224 221 220 225 226 265 303 164 155 334 291 263 258 257 263 265 278 258 244 274 223 222 187 270 243 225 219 221 235 245 255 263 278 270 261
196 199 196 195 192 195 202 205 215 221 219 215 213 206 202 186 161 148 91 29 174 289 273 268 248 250 247 242 243 254 242 234 210 208 203 223 217 200 226 232 228 239 243 259 260 282 275
178 186 201 214 215 206 206 209 220 217 212 206 203 197 191 164 159 143 66 72 162 5 314 276 227 250 209 200 264 266 231 218 208 223 212 251 247 245 248 243 220 249 236 255 270 278 274
192 205 206 208 210 217 217 209 209 210 209 202 201 195 182 172 153 146 135 146 146 182 336 194 233 200 179 175 333 30 233 199 223 204 171 236 167 204 224 236 218 248 278 271 278 275 290
205 211 209 202 197 200 200 198 201 204 200 199 197 191 186 179 182 146 188 161 122 59 251 309 212 130 106 275 284 348 128 189 230 234 254 252 249 235 238 256 236 276 285 288 285 263 255
200 193 194 194 192 194 195 194 198 206 206 200 195 194 197 186 172 183 179 137 97 191 299 236 26 8 343 263 314 306 285 195 219 181 227 258 257 262 265 275 262 234 267 258 248 235 242
194 194 199 201 196 196 192 193 196 200 196 196 196 199 200 198 174 187 161 79 215 213 245 323 353 325 289 308 266 247 248 267 237 233 256 242 265 237 210 223 247 206 222 221 236 239 247
207 203 200 195 189 188 188 186 192 194 194 194 195 200 207 199 196 199 153 200 216 198 283 21 347 318 312 38 317 325 339 308 264 262 252 276 240 291 287 240 227 252 221 225 238 260 273
194 187 182 187 186 187 190 191 194 196 198 201 199 203 221 205 198 188 157 230 238 225 327 7 295 183 308 342 338 4 330 29 348 23 7 254 263 262 285 244 252 225 90 228 226 233 243
163 175 182 182 180 180 186 188 191 192 193 196 192 181 179 201 197 182 222 222 236 252 281 269 271 288 273 305 349 328 302 4 14 344 335 292 232 286 319 276 312 265 238 250 265 213 230
174 181 188 192 198 198 194 193 198 194 188 190 184 141 160 164 171 190 224 208 236 262 247 233 256 262 255 263 279 263 244 236 4 359 342 23 295 293 284 268 355 57 18 10 287 299 287
207 203 201 201 195 195 193 195 199 195 194 185 176 162 164 174 188 211 214 228 251 267 247 225 222 231 208 208 240 299 254 176 312 338 349 348 347 310 306 128 50 30 31 14 275 250 306
223 223 219 219 214 210 205 200 200 196 194 189 158 166 192 202 233 170 201 235 244 236 245 251 218 226 193 213 183 278 261 241 83 324 204 199 249 261 279 299 288 290 288 267 276 272 343
233 225 221 217 216 214 203 204 201 199 194 190 183 211 177 180 213 212 168 220 231 235 196 36 263 223 208 207 215 231 260 317 212 75 84 135 258 277 300 324 302 293 299 290 246 253 229
237 233 227 222 218 215 204 205 203 199 195 193 173 172 179 182 161 184 209 234 242 251 240 235 236 251 138 163 171 206 175 210 216 199 177 189 247 319 303 295 327 321 299 282 262 245 254
240 232 230 226 222 220 211 204 203 195 192 184 187 167 169 194 172 149 204 203 223 257 232 241 165 183 213 206 202 215 224 220 232 223 201 186 194 172 262 277 335 290 257 264 266 268 246
243 235 229 225 224 220 216 210 202 202 201 200 195 168 143 218 176 206 216 187 225 202 158 170 200 203 222 171 166 246 244 241 239 240 222 240 208 41 287 320 250 246 274 296 290 275 281
244 237 231 224 221 220 216 211 208 206 206 206 205 201 144 189 223 242 220 167 196 204 193 196 211 209 185 154 67 10 325 322 247 228 214 218 215 265 234 241 292 302 284 253 177 276 23
243 234 227 224 218 216 213 211 206 206 206 201 195 194 172 156 233 248 188 185 157 181 207 222 221 250 167 104 80 135 246 260 286 306 336 247 207 208 205 246 239 216 356 324 282 249 12
237 230 225 227 218 213 211 208 204 206 204 202 199 201 190 166 241 326 182 189 188 158 165 239 171 134 166 84 94 158 242 256 274 276 299 307 318 234 248 247 274 358 356 324 173 296 321
233 227 222 219 215 209 208 207 202 204 201 203 204 201 193 205 202 188 224 172 162 179 148 171 85 2 50 95 136 226 178 234 292 255 273 273 255 245 259 271 246 335 348 24 280 302 309
224 218 215 210 211 207 203 204 204 197 195 196 202 201 207 224 242 233 244 227 218 169 181 171 167 161 163 99 192 211 196 195 210 268 270 281 71 303 286 327 309 324 287 260 315 302 303
Height
1481 1484 1488 1491 1494 1498 1499 1501 1501 1504 1505 1507 1510 1511 1513 1513 1512 1513 1514 1515 1514 1513 1512 1511 1508 1507 1507 1507 1499 1502 1501 1498 1498 1499 1500 1499 1499 1499 1499 1496 1494 1490 1487 1484 1481 1479 1474
1472 1476 1481 1484 1488 1492 1494 1495 1497 1499 1500 1501 1506 1507 1508 1508 1508 1510 1510 1510 1510 1509 1507 1506 1503 1503 1504 1502 1490 1493 1494 1494 1494 1495 1496 1497 1497 1497 1494 1491 1492 1487 1484 1480 1476 1473 1470
1463 1467 1472 1477 1481 1485 1486 1490 1492 1494 1496 1498 1501 1502 1502 1502 1504 1505 1506 1505 1505 1505 1504 1501 1500 1498 1497 1485 1487 1487 1486 1485 1487 1488 1489 1493 1495 1497 1492 1489 1487 1485 1484 1474 1471 1467 1466
1451 1457 1463 1468 1473 1476 1481 1484 1487 1490 1491 1492 1496 1497 1497 1497 1499 1501 1502 1501 1500 1500 1499 1498 1496 1494 1486 1481 1480 1476 1477 1476 1478 1480 1482 1486 1490 1492 1490 1489 1486 1488 1483 1480 1463 1463 1458
1440 1446 1452 1459 1464 1468 1472 1477 1481 1484 1487 1488 1490 1491 1493 1495 1495 1496 1498 1497 1497 1495 1495 1496 1495 1492 1482 1476 1473 1473 1473 1474 1473 1473 1474 1480 1486 1484 1486 1487 1491 1487 1485 1474 1469 1460 1458
1428 1434 1441 1449 1454 1459 1466 1470 1475 1478 1482 1483 1484 1487 1489 1491 1491 1493 1493 1492 1492 1490 1490 1491 1492 1494 1477 1472 1472 1470 1471 1472 1472 1473 1473 1477 1480 1479 1481 1486 1481 1482 1481 1471 1468 1458 1454
1414 1422 1431 1438 1444 1451 1458 1464 1469 1472 1476 1478 1481 1483 1485 1488 1487 1491 1491 1490 1491 1488 1485 1481 1480 1473 1471 1470 1470 1469 1470 1471 1470 1473 1471 1470 1476 1473 1471 1468 1466 1469 1468 1461 1455 1455 1456
1403 1413 1421 1430 1435 1445 1453 1459 1464 1466 1471 1474 1477 1480 1483 1486 1486 1487 1488 1485 1487 1490 1479 1473 1472 1467 1465 1469 1465 1462 1468 1470 1467 1467 1468 1471 1461 1457 1462 1464 1465 1467 1465 1456 1447 1451 1451
1397 1409 1415 1425 1431 1439 1447 1452 1458 1463 1467 1470 1474 1477 1481 1483 1485 1485 1486 1485 1484 1486 1481 1463 1459 1454 1453 1458 1452 1445 1459 1458 1461 1466 1465 1466 1447 1444 1456 1454 1457 1458 1454 1454 1450 1444 1439
1393 1404 1412 1420 1426 1434 1439 1445 1453 1461 1463 1466 1471 1474 1478 1481 1484 1484 1484 1483 1483 1484 1487 1461 1452 1445 1448 1451 1448 1434 1442 1454 1455 1457 1463 1454 1441 1445 1450 1442 1451 1450 1440 1442 1442 1447 1446
1389 1400 1406 1413 1421 1430 1438 1442 1447 1455 1460 1462 1468 1471 1475 1478 1479 1483 1485 1483 1483 1484 1512 1450 1447 1443 1442 1445 1439 1435 1435 1447 1444 1447 1454 1423 1431 1436 1435 1423 1442 1431 1440 1442 1439 1440 1444
1385 1394 1402 1409 1416 1426 1433 1438 1444 1452 1454 1458 1464 1468 1473 1477 1478 1481 1481 1482 1484 1495 1498 1447 1441 1443 1449 1446 1440 1438 1439 1444 1444 1450 1446 1425 1437 1430 1420 1424 1428 1430 1434 1437 1438 1438 1443
1381 1388 1397 1404 1412 1421 1427 1433 1440 1448 1452 1455 1461 1465 1471 1474 1475 1477 1480 1482 1494 1496 1455 1447 1446 1449 1449 1445 1441 1440 1440 1446 1448 1453 1449 1438 1430 1428 1431 1432 1421 1431 1440 1446 1446 1435 1423
1379 1385 1394 1402 1407 1416 1420 1428 1435 1444 1449 1454 1459 1462 1466 1472 1473 1475 1477 1486 1486 1458 1454 1443 1448 1445 1451 1443 1437 1437 1438 1442 1438 1438 1436 1441 1430 1412 1417 1421 1419 1420 1421 1434 1421 1420 1409
1378 1381 1391 1399 1404 1411 1417 1421 1431 1439 1446 1451 1455 1460 1463 1468 1471 1474 1479 1481 1476 1461 1458 1457 1455 1454 1449 1444 1442 1437 1434 1437 1433 1436 1440 1436 1422 1404 1408 1408 1414 1405 1419 1395 1415 1408 1415
1376 1379 1387 1396 1401 1406 1413 1419 1426 1434 1443 1448 1450 1453 1458 1465 1469 1473 1479 1474 1464 1459 1460 1463 1465 1459 1457 1454 1453 1447 1437 1444 1445 1442 1445 1437 1423 1416 1407 1404 1400 1405 1399 1413 1408 1407 1403
1375 1380 1385 1392 1399 1403 1410 1416 1423 1430 1439 1445 1448 1449 1454 1457 1467 1471 1470 1462 1456 1460 1464 1466 1464 1461 1462 1461 1457 1456 1451 1450 1449 1446 1444 1440 1434 1416 1408 1399 1404 1401 1395 1398 1396 1391 1385
1376 1383 1387 1391 1395 1399 1405 1413 1420 1428 1435 1443 1445 1447 1448 1454 1462 1460 1460 1458 1456 1455 1459 1462 1463 1459 1458 1457 1457 1458 1449 1451 1456 1458 1452 1450 1438 1421 1411 1396 1402 1407 1409 1409 1391 1387 1388
1375 1381 1385 1389 1393 1397 1402 1410 1416 1421 1431 1437 1442 1442 1445 1449 1455 1454 1451 1455 1455 1453 1453 1454 1459 1461 1456 1458 1457 1459 1447 1449 1453 1452 1453 1453 1442 1432 1410 1403 1406 1414 1419 1419 1420 1410 1398
1372 1378 1380 1385 1390 1393 1398 1406 1412 1419 1425 1432 1437 1442 1444 1442 1448 1448 1447 1449 1449 1449 1450 1452 1455 1458 1454 1453 1457 1461 1450 1444 1445 1449 1448 1449 1446 1438 1430 1424 1416 1419 1416 1418 1421 1415 1408
1369 1372 1375 1381 1386 1392 1392 1402 1407 1414 1420 1426 1431 1429 1429 1436 1439 1444 1445 1445 1445 1446 1445 1446 1446 1448 1446 1452 1451 1452 1453 1451 1444 1448 1448 1448 1446 1438 1439 1425 1422 1417 1412 1408 1416 1411 1412
1363 1367 1369 1372 1381 1388 1388 1395 1404 1408 1415 1419 1421 1425 1428 1430 1428 1436 1441 1438 1441 1444 1447 1440 1447 1445 1433 1444 1445 1450 1451 1450 1446 1444 1447 1445 1445 1435 1428 1429 1421 1419 1404 1405 1397 1394 1390
1353 1356 1360 1364 1372 1382 1383 1392 1397 1402 1408 1406 1416 1418 1420 1424 1429 1431 1433 1428 1432 1439 1431 1437 1438 1441 1440 1440 1439 1439 1440 1440 1440 1442 1443 1443 1445 1440 1427 1421 1420 1426 1403 1398 1391 1384 1383
1343 1346 1352 1358 1364 1372 1379 1387 1392 1393 1400 1406 1413 1414 1419 1423 1420 1419 1426 1420 1430 1434 1433 1434 1435 1439 1437 1435 1438 1439 1437 1436 1436 1433 1433 1429 1427 1431 1424 1416 1426 1399 1387 1387 1382 1377 1374
1330 1334 1340 1348 1355 1365 1372 1376 1384 1388 1394 1407 1411 1411 1415 1416 1421 1416 1421 1420 1426 1428 1431 1431 1431 1431 1431 1435 1443 1442 1443 1434 1426 1423 1422 1423 1431 1438 1434 1417 1404 1393 1384 1379 1379 1382 1380
1320 1324 1330 1338 1346 1354 1362 1370 1377 1385 1394 1402 1405 1408 1413 1418 1415 1417 1419 1420 1426 1430 1430 1426 1427 1428 1430 1433 1442 1452 1448 1432 1431 1419 1415 1415 1421 1429 1430 1419 1410 1385 1378 1379 1380 1388 1378
1308 1313 1320 1326 1335 1344 1353 1361 1370 1381 1388 1396 1400 1405 1411 1413 1413 1415 1416 1418 1420 1423 1426 1424 1425 1427 1427 1438 1457 1455 1443 1431 1431 1422 1419 1426 1430 1421 1415 1409 1396 1392 1388 1379 1393 1392 1381
1294 1300 1308 1316 1325 1335 1345 1355 1364 1373 1383 1390 1396 1403 1407 1410 1412 1414 1414 1414 1415 1417 1423 1422 1426 1427 1431 1442 1446 1450 1450 1437 1432 1421 1419 1420 1421 1415 1407 1403 1394 1394 1386 1389 1390 1381 1377
1278 1289 1298 1307 1316 1327 1338 1349 1357 1368 1378 1387 1394 1400 1405 1410 1411 1411 1412 1412 1413 1415 1416 1417 1419 1420 1423 1433 1435 1432 1430 1431 1431 1433 1414 1420 1417 1420 1413 1403 1392 1391 1388 1384 1382 1378 1373